Wind_Speed
43 41 38 34 31 28 26 23 19 16 14 11 9 8 9 9 10 11 10 12 14 15 18 21 24 26 28 34 41 46 48 44 38 36 34 37 41 46 51 54 56 61 69 77
44 42 40 37 33 30 27 25 22 19 15 12 11 9 9 10 12 13 14 14 16 17 18 21 24 27 28 34 40 46 50 46 45 42 41 40 43 46 50 52 56 61 69 73
44 43 41 39 36 32 29 27 24 20 17 16 14 13 11 11 14 16 17 17 18 18 19 22 24 27 30 34 39 44 48 45 41 37 36 39 43 47 50 52 57 61 68 76
44 44 42 39 37 35 31 28 25 22 20 18 17 15 14 14 15 17 18 19 19 19 19 21 23 26 30 34 38 43 48 45 39 36 36 41 44 47 49 52 57 62 68 76
46 42 42 40 37 35 33 30 27 25 23 20 18 17 16 16 17 17 18 19 19 19 19 21 22 27 31 35 38 42 46 45 40 37 38 42 45 48 48 54 57 63 69 76
48 44 42 41 39 37 31 29 29 27 24 23 20 18 18 18 18 17 18 18 18 18 19 20 22 25 30 35 38 42 45 46 40 39 40 43 46 48 47 52 56 62 68 74
48 47 44 41 39 36 34 30 29 29 25 24 22 21 20 20 20 19 19 18 18 17 19 19 21 25 29 33 37 41 43 43 39 40 42 46 47 46 47 50 54 61 68 74
45 46 45 43 39 37 35 32 27 27 25 24 23 22 21 22 22 21 19 19 18 17 18 19 20 24 28 31 37 41 42 43 41 41 43 45 46 45 47 50 54 60 65 69
46 45 44 43 41 37 35 33 30 28 26 23 23 23 21 22 23 22 20 19 17 18 18 18 22 25 27 32 37 40 42 41 40 41 43 46 46 47 48 50 53 59 65 70
47 47 45 43 41 39 35 34 31 30 28 25 23 22 22 24 25 24 21 19 17 18 17 18 21 24 26 31 36 39 40 39 39 40 44 46 47 48 48 50 53 57 63 68
50 47 46 44 41 39 36 35 32 30 29 27 25 23 22 24 25 25 22 20 18 17 17 19 21 23 26 29 35 38 39 38 39 41 42 47 48 48 48 48 52 57 62 67
52 50 48 46 43 39 38 35 34 33 32 29 25 23 23 25 27 26 22 19 18 17 17 19 21 23 26 28 32 37 36 36 37 40 41 45 48 49 48 48 50 55 61 66
56 52 50 48 44 42 39 36 36 35 34 30 26 24 23 26 27 26 23 19 19 17 18 19 19 22 24 26 31 36 36 35 37 40 42 44 48 50 50 47 50 53 58 64
57 54 52 49 47 45 44 40 38 38 34 30 26 24 24 26 26 25 22 20 20 17 17 19 18 22 24 26 30 36 36 35 35 40 42 43 45 47 49 47 49 53 55 62
58 54 53 51 49 47 46 45 42 39 36 31 29 26 25 26 26 25 23 21 20 17 18 18 18 21 22 26 29 34 35 34 37 37 40 41 43 45 48 49 48 51 56 62
58 56 53 51 50 48 46 45 42 40 37 34 32 27 24 26 27 25 23 22 20 18 18 18 19 21 23 26 28 33 33 32 31 35 39 46 47 47 48 49 47 48 54 60
58 56 54 51 50 49 46 43 40 40 39 36 33 31 26 26 26 24 24 23 21 19 19 19 20 21 23 26 27 31 31 28 33 35 38 43 46 48 51 50 49 47 52 56
59 56 55 54 52 50 47 44 43 41 40 37 34 31 26 27 26 25 24 24 21 19 19 21 21 22 23 24 25 29 30 30 33 37 40 40 45 49 50 50 50 48 50 54
61 57 55 55 54 51 48 46 44 43 42 37 34 29 27 30 28 26 26 22 21 20 20 22 22 23 23 24 25 28 28 28 32 36 37 41 48 50 50 49 50 48 49 53
64 60 59 59 56 52 51 50 47 45 42 36 34 31 31 30 28 28 26 23 23 20 21 23 22 23 23 23 24 26 25 29 32 36 38 39 47 51 49 48 48 48 48 52
71 69 65 60 56 55 55 55 53 50 44 39 37 33 32 31 30 28 27 25 22 21 21 24 22 24 23 23 22 23 25 28 31 34 39 40 46 51 48 47 47 47 48 52
72 68 63 58 60 61 61 60 57 51 42 38 33 32 32 32 31 29 28 26 24 22 23 26 23 25 23 20 21 22 24 26 30 37 41 43 45 48 45 45 46 46 47 50
72 70 66 64 66 69 68 64 53 42 34 34 35 33 31 31 32 31 28 27 24 24 26 27 26 24 24 22 23 23 24 29 33 36 41 46 48 47 42 43 43 43 45 50
75 75 73 68 72 72 67 48 41 38 37 38 36 32 32 35 34 31 29 27 25 27 28 27 26 26 26 26 26 26 30 36 39 39 44 46 45 48 42 41 42 43 43 48
78 76 76 75 75 69 56 45 45 42 41 40 41 42 40 38 38 34 30 28 29 30 30 28 28 29 28 27 28 29 32 33 36 39 39 41 42 45 41 39 41 41 42 46
79 84 81 75 73 67 55 51 47 45 45 44 44 43 43 42 42 37 34 29 29 33 31 30 30 31 30 30 31 29 30 32 33 37 39 41 42 42 39 38 40 39 41 45
84 84 79 76 73 64 55 50 45 44 47 46 47 45 45 45 44 37 30 28 34 35 33 31 31 32 31 31 31 32 33 33 34 40 40 41 44 39 37 37 39 38 39 44
Wind_Direction
204 205 207 209 210 213 212 213 215 217 223 229 238 251 251 248 255 276 298 321 335 343 348 348 350 351 355 357 359 358 356 354 354 351 353 351 351 351 348 349 346 346 349 349
205 206 209 209 213 215 217 217 219 222 228 235 245 260 262 253 259 271 287 307 322 335 338 341 346 348 351 353 355 355 351 355 353 354 353 354 353 351 349 350 349 351 352 353
207 207 210 211 214 217 221 223 224 228 232 239 246 256 266 264 262 270 283 297 312 326 331 336 342 343 345 350 355 356 352 355 355 356 354 353 352 352 353 351 352 353 355 356
209 210 209 212 215 219 223 226 229 231 235 239 246 253 266 268 266 271 280 292 305 319 326 332 340 340 340 346 353 353 350 356 356 358 355 354 355 354 355 353 354 354 357 357
208 212 212 210 213 219 223 228 231 233 237 240 246 253 263 271 273 275 281 290 302 313 320 330 336 338 338 341 349 351 349 354 358 358 357 357 356 358 356 354 354 354 359 359
209 210 212 211 211 217 220 226 231 235 237 242 245 253 260 265 274 279 282 289 297 308 316 326 334 337 338 337 345 350 348 352 357 358 358 356 358 359 357 354 354 355 360 360
210 211 212 213 211 213 216 219 228 233 234 240 245 253 261 267 273 279 284 288 295 303 312 321 332 334 335 336 341 348 349 353 357 358 358 359 359 359 359 356 358 356 0 0
208 211 210 213 212 211 215 219 226 233 235 240 246 251 257 263 268 275 282 287 292 299 308 319 326 329 334 336 338 345 350 351 356 359 360 0 0 359 0 1 357 358 358 1
208 209 210 210 213 214 217 224 223 230 234 238 244 251 256 262 267 273 277 281 288 294 305 316 322 330 335 333 339 345 349 351 357 0 1 2 360 360 2 3 359 358 357 0
210 210 212 212 214 217 219 225 225 228 231 235 242 249 254 261 266 270 273 277 282 290 301 312 320 327 334 332 337 343 348 351 358 2 359 2 0 2 2 2 359 356 357 358
210 211 212 215 216 217 220 225 227 229 231 234 240 247 257 262 264 268 268 272 279 285 297 307 315 325 330 333 335 342 347 351 355 358 359 2 359 1 2 0 357 357 357 358
209 211 212 214 215 218 221 225 229 230 231 232 237 247 258 262 262 265 264 267 273 280 292 302 313 323 328 330 333 340 347 351 354 358 355 356 0 360 0 359 358 357 356 357
210 212 213 215 215 218 225 225 231 233 232 232 237 246 257 261 261 262 260 262 266 274 286 297 311 318 324 327 332 340 346 350 352 356 356 358 359 359 358 358 359 357 354 355
213 212 214 215 215 218 224 226 228 228 230 232 237 243 253 258 259 259 257 257 261 271 281 293 308 314 320 323 330 339 345 349 352 352 350 352 355 357 355 357 358 357 354 356
213 214 215 215 216 217 219 221 223 224 227 232 237 242 249 254 256 255 252 253 258 266 277 290 301 310 316 319 324 337 345 349 349 352 354 356 354 355 354 354 356 354 352 356
213 215 215 215 216 216 218 220 222 226 229 231 236 241 247 252 252 250 247 250 256 264 274 285 297 305 313 315 319 334 345 350 354 356 358 359 358 357 356 352 353 353 354 355
214 215 216 216 217 217 218 221 222 225 227 229 232 236 241 250 249 245 244 247 251 261 272 282 292 303 309 312 320 336 341 344 345 346 347 351 355 356 356 352 351 354 353 353
214 215 216 217 218 218 219 219 220 223 225 229 231 234 238 246 244 243 243 245 251 260 267 278 288 298 303 308 315 330 337 336 345 348 352 356 355 353 352 353 347 352 351 354
212 213 214 217 217 218 219 220 222 223 225 227 231 230 235 239 239 240 241 243 249 257 265 274 284 294 300 306 311 324 333 335 340 351 355 355 356 355 351 348 344 348 349 355
210 211 214 216 216 218 218 217 219 221 224 223 226 226 231 238 240 240 239 242 247 251 262 271 281 290 298 303 312 322 324 329 338 344 349 353 359 356 351 345 342 342 346 355
212 214 215 216 216 218 219 220 221 222 221 223 224 228 235 240 240 239 242 244 247 250 258 268 277 285 292 301 307 318 316 323 337 342 350 351 349 349 349 342 338 340 346 356
213 214 215 214 215 218 219 221 221 221 221 224 226 230 235 236 240 243 244 245 248 252 256 266 274 280 293 295 299 307 314 323 328 339 347 354 354 351 346 337 336 338 346 354
210 211 212 214 218 221 222 223 223 227 231 230 227 227 232 237 242 245 246 248 251 254 258 266 272 282 290 288 293 298 301 313 321 329 336 341 347 347 342 337 335 336 346 355
211 215 215 214 220 224 227 225 224 225 225 225 224 226 232 242 246 248 250 251 252 254 258 265 275 279 286 290 291 293 298 305 310 315 331 335 341 344 338 335 332 334 347 351
207 212 217 220 226 228 225 221 222 221 221 224 225 229 233 236 244 246 253 256 255 256 260 267 274 279 283 293 296 296 299 308 312 316 328 338 341 344 337 330 328 334 345 349
212 217 218 218 224 226 223 223 219 218 222 225 229 231 235 237 241 249 253 253 257 259 263 266 272 279 285 291 293 293 298 303 311 317 322 338 340 340 333 325 325 333 342 345
211 218 220 223 225 227 224 224 221 223 226 227 230 233 237 241 244 248 248 252 254 256 263 269 275 279 285 293 295 287 294 303 309 313 320 332 336 333 326 321 323 330 338 340
Height
5861 5868 5874 5880 5884 5888 5892 5895 5899 5902 5904 5907 5907 5908 5909 5910 5910 5910 5909 5908 5906 5904 5901 5898 5894 5889 5884 5878 5871 5863 5855 5846 5839 5832 5828 5818 5811 5802 5792 5782 5772 5757 5741 5724
5855 5862 5869 5875 5880 5885 5889 5892 5895 5898 5901 5904 5905 5906 5907 5907 5908 5907 5907 5906 5904 5902 5900 5897 5892 5887 5882 5876 5869 5861 5853 5844 5835 5826 5822 5816 5807 5800 5791 5782 5770 5755 5740 5727
5850 5857 5864 5870 5876 5881 5886 5889 5892 5896 5898 5900 5902 5903 5904 5904 5904 5904 5904 5903 5902 5900 5897 5894 5889 5884 5879 5874 5867 5860 5852 5843 5834 5828 5821 5814 5807 5798 5788 5777 5765 5754 5740 5723
5844 5851 5857 5864 5871 5877 5882 5885 5889 5892 5895 5896 5898 5900 5901 5901 5901 5901 5901 5900 5899 5897 5894 5891 5887 5882 5877 5872 5866 5859 5851 5842 5834 5827 5820 5812 5805 5796 5785 5774 5763 5751 5739 5720
5837 5846 5853 5858 5865 5871 5877 5881 5885 5887 5890 5892 5895 5896 5897 5898 5897 5898 5898 5897 5896 5894 5891 5889 5885 5880 5875 5870 5864 5857 5848 5840 5832 5826 5818 5809 5801 5793 5782 5771 5760 5748 5733 5716
5832 5839 5846 5852 5858 5865 5871 5875 5879 5883 5886 5888 5891 5892 5893 5894 5894 5894 5894 5893 5892 5891 5889 5886 5882 5878 5873 5867 5862 5855 5847 5838 5830 5822 5815 5806 5800 5789 5780 5768 5757 5745 5730 5716
5825 5833 5840 5847 5853 5859 5865 5869 5873 5878 5881 5883 5886 5888 5889 5890 5890 5891 5890 5889 5889 5888 5886 5883 5880 5876 5871 5866 5860 5853 5845 5837 5828 5821 5813 5804 5797 5789 5779 5769 5757 5743 5729 5714
5818 5827 5834 5841 5847 5853 5859 5864 5868 5872 5875 5879 5881 5883 5884 5886 5886 5886 5886 5886 5886 5884 5883 5881 5878 5874 5870 5864 5858 5851 5842 5834 5827 5820 5812 5806 5796 5787 5778 5767 5756 5743 5731 5717
5812 5820 5828 5835 5842 5847 5852 5858 5862 5867 5870 5874 5876 5878 5880 5881 5881 5882 5882 5882 5882 5881 5879 5877 5874 5870 5866 5861 5855 5848 5840 5833 5827 5819 5812 5803 5795 5786 5776 5766 5755 5742 5731 5719
5806 5813 5821 5828 5835 5841 5846 5852 5856 5861 5865 5868 5871 5873 5874 5876 5877 5877 5878 5878 5878 5877 5876 5874 5871 5867 5864 5858 5852 5845 5839 5832 5824 5817 5810 5802 5794 5784 5774 5764 5756 5742 5731 5717
5798 5806 5814 5822 5828 5833 5840 5845 5850 5855 5859 5861 5865 5867 5869 5870 5871 5872 5873 5874 5873 5873 5872 5870 5868 5865 5861 5856 5849 5842 5836 5830 5822 5816 5809 5801 5793 5784 5773 5764 5753 5742 5731 5717
5790 5798 5806 5814 5821 5827 5833 5839 5844 5848 5852 5856 5858 5861 5863 5865 5865 5867 5867 5869 5869 5868 5868 5867 5864 5861 5857 5852 5848 5840 5834 5829 5822 5817 5809 5801 5791 5781 5772 5763 5753 5742 5730 5717
5781 5790 5797 5806 5813 5819 5825 5830 5836 5841 5846 5849 5852 5855 5857 5858 5859 5861 5863 5863 5864 5864 5863 5862 5861 5858 5854 5850 5844 5838 5832 5826 5821 5815 5807 5799 5790 5780 5771 5762 5753 5742 5731 5719
5773 5781 5789 5797 5804 5811 5817 5824 5828 5833 5838 5842 5846 5848 5850 5852 5853 5855 5857 5858 5859 5859 5859 5857 5857 5854 5850 5846 5841 5835 5830 5824 5818 5812 5804 5797 5789 5779 5770 5760 5752 5742 5731 5719
5764 5772 5781 5788 5795 5802 5808 5815 5820 5824 5831 5836 5838 5841 5842 5845 5847 5849 5851 5853 5854 5854 5854 5853 5852 5849 5847 5842 5838 5833 5827 5822 5816 5809 5803 5795 5787 5777 5768 5759 5751 5742 5730 5716
5755 5764 5772 5779 5786 5793 5799 5805 5811 5817 5823 5827 5830 5834 5835 5838 5840 5843 5845 5847 5848 5849 5848 5847 5847 5845 5843 5839 5835 5830 5825 5819 5813 5808 5801 5793 5785 5775 5766 5758 5750 5741 5729 5716
5745 5754 5763 5771 5777 5784 5791 5800 5806 5809 5814 5818 5823 5824 5828 5831 5834 5836 5839 5840 5842 5843 5843 5842 5841 5840 5838 5834 5831 5826 5822 5817 5811 5805 5799 5792 5782 5774 5765 5756 5748 5740 5729 5717
5735 5745 5753 5761 5768 5775 5782 5790 5794 5799 5805 5808 5815 5817 5820 5824 5827 5830 5832 5834 5836 5836 5836 5836 5835 5834 5832 5830 5827 5823 5818 5813 5809 5803 5796 5789 5781 5772 5764 5755 5746 5738 5729 5717
5724 5735 5743 5750 5756 5764 5773 5780 5785 5789 5797 5801 5808 5810 5813 5816 5820 5822 5825 5827 5829 5831 5830 5829 5830 5828 5826 5825 5822 5818 5815 5811 5806 5800 5793 5787 5779 5770 5762 5753 5744 5737 5728 5716
5712 5722 5729 5736 5745 5757 5762 5767 5773 5780 5786 5794 5800 5802 5805 5811 5813 5815 5818 5820 5822 5824 5824 5823 5823 5822 5821 5819 5816 5814 5810 5806 5802 5796 5791 5784 5776 5768 5760 5751 5743 5735 5727 5714
5697 5707 5716 5730 5740 5746 5750 5755 5761 5768 5777 5787 5792 5794 5799 5802 5806 5807 5811 5813 5815 5817 5818 5816 5818 5816 5815 5813 5811 5809 5805 5802 5798 5793 5787 5780 5773 5765 5757 5749 5741 5733 5724 5713
5690 5700 5712 5724 5726 5730 5735 5740 5748 5759 5772 5782 5786 5787 5791 5793 5797 5800 5803 5806 5808 5811 5811 5809 5811 5810 5809 5807 5805 5803 5800 5797 5793 5788 5782 5776 5768 5762 5755 5746 5738 5731 5721 5711
5679 5688 5698 5707 5709 5711 5714 5724 5744 5761 5770 5776 5778 5778 5782 5785 5789 5792 5796 5798 5802 5803 5803 5802 5804 5803 5802 5801 5799 5797 5794 5791 5787 5782 5777 5771 5764 5757 5751 5743 5735 5727 5719 5709
5663 5672 5681 5691 5690 5695 5707 5735 5747 5756 5762 5764 5767 5770 5773 5777 5780 5784 5788 5792 5794 5795 5795 5795 5797 5796 5796 5794 5792 5791 5788 5785 5781 5776 5772 5766 5760 5753 5746 5740 5732 5725 5716 5707
5647 5658 5667 5674 5679 5692 5714 5730 5735 5744 5749 5754 5756 5759 5763 5767 5770 5775 5780 5784 5785 5786 5787 5788 5789 5789 5788 5788 5786 5784 5781 5778 5774 5771 5766 5761 5754 5748 5741 5735 5728 5721 5712 5705
5633 5643 5653 5665 5671 5686 5707 5716 5725 5734 5739 5742 5745 5749 5753 5758 5760 5767 5771 5776 5778 5776 5778 5779 5780 5780 5780 5779 5777 5776 5773 5771 5768 5764 5759 5753 5748 5742 5735 5729 5723 5716 5708 5701
5615 5632 5646 5655 5665 5683 5701 5710 5719 5725 5728 5731 5735 5740 5744 5748 5750 5759 5765 5770 5766 5767 5769 5771 5772 5772 5772 5771 5769 5768 5765 5763 5760 5756 5752 5747 5741 5735 5728 5723 5717 5710 5704 5698